TimeCDT,TemperatureF,Dew PointF,Humidity,Sea Level PressureIn,VisibilityMPH,Wind Direction,Wind SpeedMPH,Gust SpeedMPH,PrecipitationIn,Events,Conditions,WindDirDegrees,DateUTC
12:53 AM,75.0,53.1,46,30.03,10.0,ENE,6.9,-,0.00,,Overcast,60,2012-10-15 05:53:00
1:53 AM,73.9,52.0,46,30.04,10.0,Calm,Calm,-,N/A,,Overcast,0,2012-10-15 06:53:00
2:53 AM,73.0,55.0,53,30.03,10.0,North,3.5,-,N/A,,Overcast,350,2012-10-15 07:53:00
3:53 AM,75.0,51.1,43,30.02,10.0,Calm,Calm,-,N/A,,Overcast,0,2012-10-15 08:53:00
4:53 AM,73.9,53.1,48,30.02,10.0,Calm,Calm,-,N/A,,Overcast,0,2012-10-15 09:53:00
5:53 AM,73.0,53.1,49,30.03,10.0,Calm,Calm,-,N/A,,Overcast,0,2012-10-15 10:53:00
6:53 AM,73.4,53.6,50,30.09,10.0,Calm,Calm,-,N/A,,Overcast,0,2012-10-15 11:53:00
7:53 AM,72.0,54.0,53,30.05,10.0,Calm,Calm,-,N/A,,Overcast,0,2012-10-15 12:53:00
8:53 AM,73.0,54.0,51,30.07,10.0,Calm,Calm,-,N/A,,Mostly Cloudy,0,2012-10-15 13:53:00
9:53 AM,73.9,54.0,50,30.09,10.0,NW,3.5,-,N/A,,Scattered Clouds,320,2012-10-15 14:53:00
10:53 AM,77.0,48.9,37,30.08,10.0,NE,4.6,-,N/A,,Mostly Cloudy,50,2012-10-15 15:53:00
11:53 AM,77.0,48.9,37,30.07,10.0,East,5.8,-,N/A,,Overcast,100,2012-10-15 16:53:00
12:53 PM,79.0,50.0,36,30.06,10.0,SSE,8.1,-,N/A,,Overcast,150,2012-10-15 17:53:00
1:53 PM,80.1,51.1,36,30.02,10.0,SSE,6.9,-,N/A,,Clear,150,2012-10-15 18:53:00
2:53 PM,81.0,51.1,35,29.99,10.0,South,8.1,-,N/A,,Clear,170,2012-10-15 19:53:00
3:53 PM,82.0,52.0,35,29.96,10.0,SSE,9.2,-,N/A,,Clear,160,2012-10-15 20:53:00
4:53 PM,81.0,53.1,38,29.95,10.0,SSE,9.2,-,N/A,,Scattered Clouds,150,2012-10-15 21:53:00
5:53 PM,79.0,55.0,44,29.95,10.0,South,6.9,-,N/A,,Scattered Clouds,170,2012-10-15 22:53:00
6:53 PM,78.1,55.9,46,29.95,10.0,South,5.8,-,N/A,,Partly Cloudy,170,2012-10-15 23:53:00
7:53 PM,75.9,60.1,58,29.95,10.0,South,4.6,-,N/A,,Clear,180,2012-10-16 00:53:00
8:53 PM,75.0,60.1,60,29.96,10.0,SE,4.6,-,N/A,,Scattered Clouds,140,2012-10-16 01:53:00
9:53 PM,73.9,59.0,59,29.96,10.0,SE,5.8,-,N/A,,Clear,140,2012-10-16 02:53:00
10:53 PM,73.9,57.9,57,29.95,10.0,ESE,6.9,-,N/A,,Clear,120,2012-10-16 03:53:00
11:53 PM,73.0,57.9,59,29.94,10.0,SE,5.8,-,N/A,,Clear,130,2012-10-16 04:53:00